Regional Weather Roundup
Issued by NWS Sterling, VA

Home | Current Version | Previous Version | Text Only | Print | Product List | Glossary Off
Versions: 1 2 3 4 5 6 7 8 9 10 11 12 13 14 15 16 17 18 19 20 21 22 23 24 25 26 27 28 29 30 31 32 33 34 35 36 37 38 39 40 41 42 43 44 45 46 47 48 49 50

000
ASUS41 KLWX 261011
RWRLWX

REGIONAL WEATHER ROUNDUP
NATIONAL WEATHER SERVICE BALTIMORE MD/WASHINGTON DC
600 AM EDT FRI MAY 26 2017

Note: "FAIR" indicates few or no clouds below 12,000 feet
with no significant weather and/or obstructions to visibility.
 TC=TEMPERATURE CELSIUS

 * =Non NWS site. Station does not report precipitation (e.g. rain,
    snow, etc.), thunder, or fog.

DCZ001-MDZ009-015-VAZ040>042-051-053>054-261100-
WASHINGTON METRO

CITY           SKY/WX    TMP DP  RH WIND       PRES   REMARKS
WASHINGTON NAT CLOUDY    60  56  86 SW7       29.67R
DULLES         MOCLDY    57  55  93 SW3       29.67R
ANDREWS AFB    CLOUDY    58  56  93 SW8       29.65R
FT BELVOIR     CLOUDY    57  56  96 CALM      29.67R
QUANTICO       MOCLDY    60  57  89 W7        29.68R
COLLEGE PARK*  CLOUDY    58  55  89 CALM      29.65R
LEESBURG*      CLOUDY    61  59  94 W5        29.68R
MANASSAS*      CLOUDY    57  56  96 CALM      29.68R
GAITHERSBURG*  LGT RAIN  57  55  93 W7        29.66R

$$

MDZ006>007-011-014-261100-
BALTIMORE METRO

CITY           SKY/WX    TMP DP  RH WIND       PRES   REMARKS
BWI AIRPORT    CLOUDY    58  57  97 W8        29.63R
MD SCIENCE CTR   N/A     61  56  83 MISG      29.63R
MARTIN STATE   MOCLDY    61  59  94 W7        29.64R
ANNAPOLIS      LGT RAIN  61  59  93 W7        29.64R
FORT MEADE*    CLOUDY    55  54  94 CALM      29.67R

$$

MDZ012-015-019>023-261100-
MARYLAND EASTERN SHORE

CITY           SKY/WX    TMP DP  RH WIND       PRES   REMARKS
OCEAN CITY     CLEAR     59  56  89 W12       29.66R
SALISBURY      PTCLDY    58  57  97 SW8       29.66R
BAY BRIDGE AP* CLOUDY    61  57  88 W14       29.64R
CAMBRIDGE*     CLOUDY    61  57  88 SW7       29.66R
EASTON*          N/A     61  57  88 SW5       29.68R

$$

MDZ017>025-261100-
SOUTHERN MARYLAND

CITY           SKY/WX    TMP DP  RH WIND       PRES   REMARKS
PATUXENT RIVER MOCLDY    59  58  96 SW10      29.66R
ST INIGOES     MOCLDY    61  56  83 W10       29.67R
LEONARDTOWN*   MOCLDY    57  54  88 W6        29.68R

$$

MDZ003>005-261100-
NORTH CENTRAL MARYLAND

CITY           SKY/WX    TMP DP  RH WIND       PRES   REMARKS
FREDERICK*     LGT RAIN  61  61 100 SW8       29.68R
HAGERSTOWN APT CLOUDY    59  55  87 SW6       29.65R
WESTMINSTER*   PTCLDY    57  55  94 SW6       29.64R

$$

MDZ501>502-261100-
WESTERN MARYLAND

CITY           SKY/WX    TMP DP  RH WIND       PRES   REMARKS
OAKLAND*         N/A     50  50 100 W13G22    29.73R FOG
CUMBERLAND*    MOCLDY    63  54  72 W5        29.72R

$$

VAZ025>031-261100-
SHENANDOAH VALLEY

CITY           SKY/WX    TMP DP  RH WIND       PRES   REMARKS
WINCHESTER*    CLOUDY    55  54  94 SW5       29.68R
FRONT ROYAL*   CLOUDY    55  54  94 S5        29.68R
LURAY*         MOCLDY    55  54  94 CALM        N/A
NEW MARKET*    MOCLDY    56  55  94 CALM      29.70R
STAUNTON*      CLOUDY    56  54  92 SW5       29.74R
WAYNESBORO*    CLOUDY    62  55  77 SW7       29.74R

$$

WVZ021-048>050-054>055-261100-
EASTERN WEST VIRGINIA PANHANDLE

CITY           SKY/WX    TMP DP  RH WIND       PRES   REMARKS
MARTINSBURG    CLOUDY    59  54  83 SE6       29.65R
PETERSBURG*    LGT RAIN  62  57  83 CALM      29.71R

$$

VAZ036>039-050-261100-
CENTRAL FOOTHILLS

CITY           SKY/WX    TMP DP  RH WIND       PRES   REMARKS
CHARLOTTESVILL MOCLDY    58  55  90 S5        29.70R
CULPEPER*      CLOUDY    56  56  99 CALM      29.69R
ORANGE*        CLOUDY    54  54 100 CALM      29.71R
GORDONSVILLE*  CLOUDY    56  55  97 SW3       29.71R
WARRENTON*     CLOUDY    58  54  85 SW6       29.68R

$$

VAZ055>057-261100-
NORTH AND CENTRAL PIEDMONT

CITY           SKY/WX    TMP DP  RH WIND       PRES   REMARKS
FREDERICKSBRG* PTCLDY    59  59 100 W5        29.69R
STAFFORD*      CLOUDY    56  56 100 CALM      29.73R

$$

NCZ024-NYZ072-PAZ021-071-VAZ022-071-261100-
OTHER REGIONAL OBSERVATIONS

CITY           SKY/WX    TMP DP  RH WIND       PRES   REMARKS
NEW YORK CITY  LGT RAIN  56  55  97 VRB5      29.56R
PHILADELPHIA   PTCLDY    59  56  89 W7        29.58R
PITTSBURGH     DRIZZLE   58  57  97 W8        29.70R
ROANOKE        CLOUDY    63  52  67 W12       29.83R
RICHMOND       PTCLDY    59  55  87 SW13      29.71R
RALEIGH        CLEAR     60  54  80 W7        29.86R

$$

ANZ530>537-261100-
MARINE OBSERVATIONS

STATION/POSITION TIME  TEMP    WIND        PRES
                       AIR SEA DIR/SP/G
                 (UTC) (F)     (DEG/KT/KT) (MB)
THOMAS PT LIGHT  1000   61 64  250/ 12/ 13   N/A
BALT KEY BRIDGE  0948   60     240/  7/  8 1003.3R
COVE POINT       0948   60     270/ 14/ 18 1004.8R
LEWISETTA        0948   62 67  270/ 11/ 15 1004.6R
SOLOMONS ISLAND  0948   61 66  240/ 13/ 16   N/A
PINEY POINT      0942          290/ 10/ 11   N/A

$$




USA.gov is the U.S. government's official web portal to all federal, state and local government web resources and services.